Wind_Speed
4 3 2 6 8 10 8 5 4 4 5 7 9 8 9 11 10 11 8 4 4 4 5 8 9 5 3 2 4 9 13 7 5 3 2 3 8 14 11 10 15 18 19 19 21 19 18 20 22 22 22 22 23 25 26 25 25 23 22 21 20 22 24 25 24 23 23 22 22 22 23 23 23 22 21 20 19 19 18 18 17 17 16 16 16 16 16 16 16 15 15 15 16 16 16 16 16
3 4 5 8 11 9 5 4 5 5 7 8 8 9 10 9 7 11 9 3 3 1 2 4 4 2 2 1 5 8 13 8 9 7 5 10 13 12 9 11 16 18 19 20 21 18 16 19 22 22 22 22 23 26 27 26 25 24 22 21 21 23 25 25 24 23 23 22 22 22 23 23 23 22 21 19 18 17 17 17 17 17 17 17 16 16 16 16 15 15 14 15 15 16 16 16 16
6 9 9 9 10 8 4 4 6 7 8 8 7 9 10 8 7 10 9 4 3 1 3 4 2 2 3 3 3 6 8 6 12 9 7 13 13 11 11 14 17 18 17 18 21 19 17 20 23 23 22 22 24 27 27 27 26 24 23 22 22 23 24 25 24 23 23 22 22 22 22 22 22 21 19 18 17 17 17 17 18 18 18 17 17 16 16 16 15 14 14 14 15 15 15 16 15
6 10 11 9 6 6 5 5 7 7 9 8 6 8 9 9 7 9 10 8 3 3 2 4 3 1 3 1 2 5 8 7 12 10 7 11 11 14 16 17 18 19 18 17 20 19 18 21 24 23 22 23 25 27 27 28 26 24 23 23 22 23 24 24 23 23 23 23 22 22 21 21 21 20 18 18 17 17 17 18 18 18 19 18 17 16 16 15 14 13 13 14 14 15 15 16 17
8 10 13 11 5 4 5 5 7 8 9 7 6 6 9 11 1 3 9 7 2 3 5 1 1 4 5 4 3 2 9 10 11 11 9 11 13 17 19 20 19 20 20 19 20 20 19 22 25 23 22 24 25 25 27 28 26 25 23 22 21 22 24 23 23 23 23 22 22 21 20 20 19 18 18 17 17 17 17 17 18 18 18 18 17 16 16 15 14 13 13 14 14 14 15 18 19
10 13 13 11 6 5 5 6 8 9 10 8 8 6 6 8 3 3 5 9 11 5 4 6 3 1 4 1 6 3 9 11 10 11 11 14 16 18 21 22 19 20 23 21 22 21 21 24 25 24 24 24 23 24 27 27 26 25 23 22 21 23 23 23 23 23 22 22 21 21 20 20 18 18 17 17 17 17 17 17 18 18 18 17 17 16 16 14 13 13 13 13 13 14 17 20 21
12 10 8 8 6 5 7 8 9 8 10 10 10 7 3 2 1 6 6 2 15 7 4 6 4 4 4 2 7 9 14 14 11 13 14 17 18 20 21 21 19 20 23 24 23 22 22 26 28 26 27 25 22 23 24 24 24 24 23 23 24 24 23 23 23 23 22 21 21 20 20 19 18 18 18 17 17 16 17 17 17 17 17 16 16 16 16 14 13 13 13 13 14 15 18 20 20
13 8 4 6 6 5 8 8 10 8 9 11 10 8 5 6 3 7 10 10 10 5 5 4 5 7 3 1 4 11 17 16 14 16 18 19 20 21 21 21 20 21 23 24 23 24 26 28 30 29 28 25 22 22 21 20 21 22 24 25 26 25 24 24 23 23 21 21 20 20 20 19 18 18 17 17 17 16 17 17 17 16 16 16 16 16 15 14 13 13 14 14 14 16 18 20 19
12 8 5 6 7 6 9 9 11 10 11 12 11 8 6 7 5 4 7 9 7 5 7 5 5 4 4 2 8 11 13 16 17 18 19 20 21 24 22 20 21 22 23 23 24 26 28 30 30 29 27 26 24 23 22 20 19 21 24 26 26 24 24 24 23 22 21 21 21 20 19 19 18 18 17 17 17 16 16 17 16 16 16 16 16 15 15 14 14 14 14 14 14 16 18 19 19
8 7 6 6 7 8 9 9 9 9 12 12 11 9 5 9 7 6 8 8 6 4 4 4 4 3 8 3 10 9 12 15 17 18 18 21 23 24 21 19 20 23 23 24 27 26 27 31 31 30 28 26 24 24 24 20 19 22 25 26 25 24 24 24 23 22 21 21 21 20 19 19 18 18 17 17 17 16 16 17 17 16 16 16 15 15 15 14 14 14 14 14 14 16 18 18 19
5 6 6 6 7 8 8 8 9 8 10 12 10 8 5 6 6 7 7 7 8 4 2 4 2 3 8 1 8 9 15 15 15 18 18 23 25 24 20 17 17 21 23 26 28 27 27 30 30 31 29 27 26 24 24 23 22 23 24 26 25 24 24 24 23 22 21 21 21 20 20 19 18 18 17 17 17 16 16 16 16 16 15 15 15 15 15 15 14 14 14 15 15 16 18 19 20
6 6 6 6 7 7 8 9 9 9 8 11 10 6 5 5 4 5 7 7 7 6 6 6 4 3 5 2 7 11 15 14 15 17 17 23 26 26 23 19 17 15 20 27 27 27 27 28 28 29 29 27 27 24 24 26 26 23 22 25 25 24 23 23 23 22 21 20 20 20 20 19 18 17 16 17 17 16 15 16 16 16 15 15 15 15 15 15 14 14 14 15 16 17 19 20 19
7 7 6 7 8 8 10 10 8 8 7 9 7 2 3 6 6 6 6 6 7 11 6 0 4 4 3 2 7 10 11 14 16 18 18 23 27 27 24 23 20 11 14 26 26 28 29 26 26 26 27 27 26 25 26 28 27 24 22 23 24 23 22 21 22 21 21 20 20 20 19 18 18 17 16 16 16 15 15 15 16 15 14 14 15 15 15 14 14 14 16 17 17 19 21 20 19
7 7 7 7 8 9 10 9 8 8 7 7 4 0 5 7 6 3 3 7 10 7 4 2 4 5 3 1 8 8 8 16 17 19 22 23 25 24 22 22 23 11 10 23 25 27 29 26 26 24 26 26 24 24 26 27 26 25 23 23 22 21 21 20 21 21 20 20 20 20 19 18 17 17 16 15 16 15 15 15 15 14 14 14 15 15 14 14 14 16 18 20 21 22 22 20 18
8 6 7 7 8 9 9 9 10 9 5 6 5 3 8 6 1 3 5 7 10 4 4 5 0 4 4 3 3 9 12 20 19 20 23 24 23 20 18 15 19 10 8 16 24 23 25 25 25 24 27 25 24 25 23 24 24 24 23 22 21 20 20 19 20 20 20 20 19 19 19 18 17 16 15 15 15 15 15 15 14 14 13 14 14 15 14 14 15 18 21 23 24 24 23 21 20
7 6 6 7 8 8 8 9 10 9 4 3 3 2 2 1 4 4 6 3 8 6 3 4 1 3 5 7 1 14 18 21 23 22 23 23 21 16 15 12 13 9 8 7 18 20 22 23 25 24 26 25 25 26 24 23 22 22 22 22 21 20 20 19 19 20 20 19 19 19 19 18 17 16 15 15 15 14 15 15 14 14 13 13 14 15 14 14 17 21 24 26 26 26 24 23 22
6 7 7 7 9 9 8 8 7 8 5 1 3 4 2 1 1 4 3 4 8 9 6 5 5 5 5 7 4 19 22 21 22 21 22 22 23 18 15 13 9 11 9 6 12 18 21 21 24 24 24 24 25 26 25 23 22 21 21 21 21 20 18 17 18 19 20 20 18 18 18 17 16 16 15 14 15 14 15 15 14 14 13 13 14 14 14 15 18 22 25 26 27 27 25 22 19
6 6 8 7 8 8 9 10 7 6 9 3 8 6 2 3 7 2 3 8 8 10 10 9 9 6 7 9 3 9 16 22 22 18 15 12 18 19 18 16 14 19 19 14 16 18 20 22 22 23 23 23 24 25 24 23 21 20 21 20 19 19 17 16 16 17 19 19 18 18 18 17 16 16 15 15 15 15 15 16 15 14 13 13 14 15 14 15 17 20 21 22 24 25 25 23 20
7 6 7 8 9 9 9 13 8 7 10 4 8 5 3 5 8 2 1 7 6 8 9 9 11 8 8 11 9 11 9 12 17 19 19 15 16 17 12 11 12 16 15 16 17 11 16 21 20 22 23 24 24 23 23 22 22 21 20 19 17 17 17 16 16 17 17 18 19 18 18 17 17 17 17 15 15 16 17 16 15 15 14 14 15 15 14 14 14 15 14 15 15 17 18 17 17
8 7 7 9 10 12 11 14 10 6 11 10 6 6 2 6 8 3 3 6 6 8 7 7 9 7 7 9 9 5 6 23 34 34 30 25 21 17 11 8 6 3 3 9 9 4 19 22 16 21 22 24 25 23 24 24 23 22 20 19 17 17 18 16 17 17 17 18 19 19 18 17 17 17 17 16 16 17 17 17 16 16 15 14 15 15 14 13 12 11 9 9 8 9 10 8 10
7 8 9 10 12 14 8 12 11 4 6 8 7 3 2 4 5 7 8 7 6 8 8 8 8 7 7 7 5 10 21 25 27 27 26 24 20 17 15 11 5 3 3 6 8 1 21 27 21 22 21 22 23 23 26 26 25 23 21 20 18 18 19 17 17 18 17 18 19 19 19 18 18 19 19 18 18 19 18 18 18 17 16 16 16 15 15 13 11 9 6 6 6 7 7 6 8
7 9 11 13 14 12 6 10 11 9 8 7 7 9 6 3 4 7 9 9 7 8 8 8 8 8 10 12 13 14 20 18 17 18 18 22 22 22 22 19 17 16 6 4 6 0 14 26 28 27 21 20 20 22 24 25 25 23 22 22 20 20 20 18 18 18 18 19 20 21 20 20 20 21 21 19 18 19 19 19 18 18 17 17 16 15 14 13 10 6 4 7 6 5 8 8 10
8 8 10 13 16 12 8 7 6 7 9 9 8 9 9 7 8 8 8 8 8 12 13 12 10 9 11 11 12 11 17 17 13 11 12 18 19 20 23 23 27 28 17 8 7 6 9 16 26 28 20 17 18 19 20 22 22 21 22 23 22 22 21 19 19 19 19 20 20 21 22 22 22 22 21 20 19 19 18 18 17 17 17 17 15 13 12 11 10 8 4 6 6 5 9 10 10
8 9 10 11 12 9 7 8 5 4 6 8 9 10 10 9 9 8 8 10 9 11 11 10 10 7 8 8 9 8 16 16 10 11 15 19 16 14 18 21 25 27 25 19 13 11 10 10 21 30 25 20 19 19 20 22 21 21 22 22 22 23 22 21 20 19 20 20 19 21 23 23 23 23 22 21 20 18 18 17 16 17 16 15 15 13 12 10 10 10 7 7 8 8 10 10 11
6 12 11 7 7 7 7 9 8 6 6 7 8 10 12 10 8 8 10 10 7 8 8 8 8 7 7 7 8 6 14 17 12 15 17 19 17 15 16 18 22 21 23 25 20 18 18 11 17 29 30 26 24 23 23 23 23 22 23 23 22 23 22 21 20 19 19 20 20 21 22 23 22 23 24 22 20 19 18 18 16 17 16 15 16 14 12 11 10 10 8 9 10 10 10 10 11
8 12 7 4 5 6 7 8 8 8 6 7 9 11 11 9 7 8 12 12 8 8 7 7 8 7 8 6 6 4 12 17 13 15 14 16 18 17 16 17 22 24 25 30 29 25 24 17 15 25 29 27 25 24 25 25 24 23 24 23 22 23 23 21 20 19 19 19 20 20 19 21 22 22 23 21 21 20 19 19 17 17 16 15 16 14 11 11 10 10 9 9 10 10 10 10 10
6 7 2 6 7 4 5 6 9 9 7 8 10 9 10 10 8 7 10 11 8 7 6 6 8 8 7 7 7 1 15 18 15 15 13 14 15 16 17 18 20 23 28 36 38 34 30 24 22 27 30 28 26 23 23 25 24 23 23 22 22 23 22 21 20 19 20 18 18 19 18 19 20 21 21 20 20 19 18 18 17 17 16 15 14 13 12 11 10 9 9 9 9 10 9 9 9
5 5 3 9 8 5 7 7 8 7 6 8 8 8 11 9 8 8 6 2 3 5 6 7 8 7 6 8 5 7 16 16 16 14 12 11 12 15 16 15 15 18 25 32 39 43 40 35 31 33 33 31 30 25 22 24 23 23 22 21 22 22 21 21 20 19 20 17 18 19 17 17 18 19 19 19 19 17 17 17 17 17 15 14 15 14 13 11 10 9 8 8 9 9 8 9 8
7 6 6 10 9 9 10 8 7 6 5 7 5 8 10 8 9 9 1 4 3 4 6 8 7 8 7 7 1 10 15 15 15 12 11 10 10 15 16 13 13 17 21 21 28 35 40 41 38 38 38 35 34 30 24 23 24 24 22 21 22 22 21 21 19 20 19 17 18 17 16 17 16 18 18 18 18 16 16 16 16 16 14 14 14 13 12 11 10 9 9 8 8 8 8 8 7
8 7 7 8 8 10 10 9 6 4 3 5 3 5 8 11 11 4 4 3 4 4 5 7 6 7 7 3 5 12 15 15 13 11 11 11 10 13 15 14 12 16 17 13 17 20 23 28 30 33 37 36 36 33 28 24 25 26 23 21 22 22 22 20 19 19 19 18 20 17 16 17 15 18 17 16 17 15 16 15 14 15 14 13 13 13 11 10 10 9 9 8 8 8 7 7 6
7 8 7 6 8 8 12 11 7 6 6 5 5 5 6 6 9 4 4 2 5 5 6 5 4 4 7 6 8 9 13 16 13 12 10 10 10 10 13 15 12 14 16 12 13 18 19 20 23 28 32 32 31 30 27 24 26 29 24 20 22 22 21 20 19 20 19 19 20 18 17 15 14 18 17 16 17 15 16 14 13 14 13 13 13 13 11 10 10 9 9 9 8 7 7 7 6
6 7 6 6 8 5 12 13 9 7 6 6 7 6 1 7 8 5 2 4 3 6 6 4 6 8 9 8 9 8 11 14 13 11 9 8 8 7 9 12 13 13 16 16 15 18 22 23 23 29 30 27 23 23 21 14 17 25 22 20 21 21 22 20 19 20 18 19 20 18 18 16 15 17 17 17 16 15 15 13 13 13 13 14 13 13 12 10 11 9 8 8 7 7 6 7 7
6 6 6 8 8 6 10 13 13 9 6 7 7 7 3 8 6 4 1 4 2 3 2 5 5 8 8 6 7 8 9 10 10 8 7 6 6 7 6 7 10 11 13 17 18 19 22 24 24 28 31 29 24 23 17 8 12 24 21 21 21 21 23 19 18 21 18 18 20 18 19 18 16 17 17 17 15 14 15 13 13 13 14 13 13 14 12 10 10 9 9 8 7 7 6 7 7
6 6 6 9 9 7 7 11 13 9 6 6 7 8 5 6 5 4 3 2 2 2 4 5 4 7 7 5 7 9 9 9 8 6 4 3 4 8 7 6 9 10 11 14 18 20 23 24 24 26 28 31 31 27 18 10 17 24 21 22 21 20 25 17 14 21 19 18 20 18 20 19 17 17 18 18 16 15 15 14 13 14 15 13 12 14 11 9 9 9 9 8 7 6 6 6 7
5 6 5 8 9 6 3 6 9 7 6 6 8 8 6 8 8 4 4 1 2 2 4 3 5 7 5 6 8 8 9 8 7 7 7 5 1 8 7 7 9 10 11 13 13 16 20 23 23 23 23 25 28 25 16 13 19 17 16 22 21 20 25 18 12 17 19 20 20 19 20 20 19 17 18 19 17 15 14 16 16 15 15 13 13 13 11 9 9 9 9 8 7 7 6 6 7
6 5 5 7 6 6 5 6 8 3 4 6 7 9 9 8 7 4 4 1 2 3 4 1 4 6 5 7 8 8 9 7 7 7 8 12 7 6 8 6 8 9 11 12 10 11 15 18 17 18 21 22 23 22 17 18 22 16 12 18 19 21 25 20 14 16 18 20 19 19 21 21 20 19 18 19 19 15 12 15 18 17 15 15 14 13 12 10 9 10 10 8 8 8 7 6 5
8 8 6 7 6 6 7 8 9 2 2 6 7 11 10 5 4 1 2 2 2 2 3 1 4 7 6 7 8 8 8 8 8 7 8 14 14 5 4 6 7 6 8 10 11 10 9 11 14 15 19 21 23 24 22 23 26 21 14 14 15 20 23 19 17 17 16 19 20 19 21 21 20 20 19 20 21 18 13 12 16 17 16 16 15 14 13 11 10 11 11 10 9 8 9 8 6
7 7 7 7 7 8 6 3 6 8 2 7 10 13 9 4 4 4 2 2 2 2 3 2 5 7 6 7 9 9 8 8 8 8 9 12 16 13 7 2 3 2 5 7 8 10 8 8 11 11 14 19 19 20 21 22 23 19 12 10 9 13 19 18 19 18 15 18 21 20 21 20 20 21 20 20 21 20 15 12 14 15 16 16 15 14 14 13 11 12 12 11 10 10 10 10 9
8 7 7 7 7 7 6 7 3 6 2 7 10 12 7 4 7 6 4 4 2 2 3 4 5 5 6 7 8 9 9 8 8 9 10 11 14 16 14 9 6 5 4 5 5 6 7 6 7 6 8 12 12 11 14 17 20 17 12 13 11 11 15 15 18 18 17 17 20 19 20 20 20 21 20 19 20 21 18 15 13 14 16 16 15 14 14 14 13 12 13 13 12 11 11 12 12
7 7 6 7 7 6 5 6 5 1 4 7 11 11 7 7 7 7 7 5 4 4 4 6 5 5 7 8 8 9 8 7 8 8 9 10 12 15 15 14 13 11 9 8 8 5 4 2 2 4 6 8 12 14 14 18 22 19 15 17 16 15 14 13 14 15 19 18 19 19 20 19 19 20 20 19 19 21 21 18 16 14 15 16 16 15 15 15 15 14 14 14 13 12 11 12 13
8 8 7 8 7 6 6 5 6 7 8 7 9 10 6 7 8 9 8 6 6 6 5 5 4 5 8 8 8 9 7 7 9 9 9 10 12 14 15 15 16 16 14 10 6 3 3 2 1 2 5 6 11 16 16 18 21 18 16 15 14 16 16 15 15 16 21 20 19 19 20 20 20 19 20 20 18 20 21 20 19 16 16 17 16 16 15 15 15 15 15 14 14 13 11 10 11
6 6 7 10 9 8 9 9 7 7 7 6 8 8 6 7 10 8 6 7 6 5 4 3 4 5 6 7 8 8 7 8 9 9 9 11 13 14 16 16 16 17 17 13 6 3 3 1 2 1 6 7 9 15 15 16 18 17 17 17 16 15 13 15 16 19 24 22 20 21 22 22 21 20 20 20 18 18 19 20 19 18 17 17 18 17 15 14 15 15 15 15 14 14 12 9 9
5 3 4 9 9 9 11 11 8 6 6 7 9 8 6 7 8 8 10 9 3 8 8 6 4 5 6 7 7 6 6 7 8 9 9 11 13 15 15 17 16 17 18 13 7 5 4 5 6 2 6 9 9 13 16 16 17 18 17 20 21 17 13 13 17 21 25 21 20 21 22 22 22 21 20 20 20 19 20 20 19 18 17 17 18 18 17 16 15 14 14 14 14 14 14 13 11
4 1 5 8 8 10 11 10 9 7 7 8 9 9 7 5 3 4 12 9 6 10 11 13 10 7 7 7 7 7 6 6 7 9 9 10 13 14 15 17 16 17 17 12 9 8 8 9 10 7 5 10 10 12 14 15 16 16 15 15 20 20 20 22 23 23 23 19 20 20 20 22 21 21 21 21 20 20 20 20 20 20 18 17 17 18 19 18 17 15 14 14 15 15 15 16 15
4 3 7 8 8 11 11 9 8 8 8 8 9 8 7 4 2 3 8 8 7 7 8 3 7 6 7 6 6 6 6 6 8 9 9 10 13 14 15 16 15 16 16 10 8 8 8 9 9 11 7 7 11 10 10 13 15 17 17 16 21 23 25 28 25 21 19 17 18 18 18 20 20 21 23 22 22 21 20 20 20 20 20 19 17 18 19 19 19 17 17 16 17 17 17 18 20
5 4 6 7 9 11 10 9 7 8 8 8 8 8 6 3 4 5 5 5 5 6 7 5 4 2 5 5 4 4 5 6 7 8 9 11 13 14 15 16 15 16 16 11 8 7 7 8 8 13 9 4 9 9 7 9 13 18 21 22 24 24 24 23 19 19 20 17 18 19 19 21 21 22 24 24 22 22 21 21 20 20 20 20 19 18 18 20 20 19 18 18 18 19 19 20 22
7 7 7 8 9 9 8 7 6 7 7 8 11 8 5 3 1 3 3 3 6 7 6 5 3 3 3 2 3 4 5 5 6 7 9 12 13 13 15 16 14 14 14 13 13 12 8 6 8 12 11 5 6 6 4 7 11 17 24 24 22 21 21 20 16 17 20 17 17 19 19 20 22 23 24 24 23 22 21 21 21 20 19 20 20 19 19 20 21 20 18 17 19 20 21 22 23
8 7 7 7 7 6 6 6 6 6 6 6 9 7 5 5 1 2 3 5 7 7 5 4 3 2 2 2 3 4 4 5 5 6 8 10 11 13 15 15 13 13 14 13 13 15 12 6 5 8 9 6 4 3 3 6 11 16 22 21 16 14 15 16 15 15 16 15 14 13 13 17 19 21 21 21 22 22 20 21 21 21 20 20 21 21 20 20 21 22 20 19 20 21 22 23 24
6 6 6 7 5 4 6 6 4 5 5 5 6 7 5 2 2 4 4 5 6 6 3 3 2 1 2 2 3 4 4 4 5 5 6 8 9 11 13 13 12 12 13 12 11 14 15 11 7 6 7 4 3 4 3 5 10 14 16 14 12 12 12 11 11 13 12 12 11 9 10 13 16 18 17 16 17 19 19 19 20 20 21 21 21 21 20 19 19 21 22 22 23 23 23 24 26
5 4 4 4 4 5 6 5 3 4 5 5 6 7 3 2 2 3 5 5 4 5 4 2 2 2 2 2 3 3 4 5 4 4 6 7 8 9 10 10 11 11 11 12 11 12 14 14 11 8 8 8 4 3 4 5 9 13 14 10 9 13 14 10 7 9 11 10 9 9 10 12 12 13 15 16 17 18 19 18 16 16 16 16 17 18 19 19 18 19 21 22 24 24 24 25 26
5 3 3 3 2 4 4 2 3 4 4 5 5 4 2 1 2 4 4 4 4 4 4 3 2 2 1 1 2 4 5 5 4 4 5 6 7 8 8 8 8 9 9 11 12 12 11 11 11 10 10 11 10 6 5 4 7 10 11 7 8 13 15 13 11 10 11 10 10 10 11 12 12 11 11 12 15 17 18 17 16 16 14 12 13 13 15 18 18 19 19 20 22 22 23 24 25
3 2 5 5 2 1 3 4 6 5 3 5 3 1 1 1 3 5 5 4 4 4 4 4 3 2 1 0 2 3 4 4 4 4 4 5 6 7 7 6 6 7 8 9 11 11 10 10 10 10 10 10 10 10 9 6 3 2 4 4 9 13 12 12 12 11 11 11 11 12 13 13 12 11 9 7 9 12 15 17 18 19 17 15 14 13 14 17 18 19 19 20 21 21 21 23 24
2 1 5 5 1 2 5 5 6 5 5 6 2 3 4 3 3 3 4 5 5 5 5 5 4 3 2 0 1 2 3 3 3 4 4 4 5 6 5 5 5 6 7 8 9 9 10 10 10 10 10 9 9 10 10 9 8 5 3 3 4 9 8 7 8 8 8 9 11 13 14 14 12 11 10 9 10 10 13 17 18 18 18 17 17 16 16 18 18 19 20 20 21 20 19 21 22
5 3 3 4 2 5 5 3 3 4 6 4 0 4 5 5 2 0 3 6 7 6 6 5 4 3 3 2 2 3 4 4 4 5 4 4 4 5 4 3 4 5 5 6 7 8 9 10 10 11 10 9 9 9 10 9 9 8 6 6 3 2 4 5 6 7 7 7 9 10 11 12 11 11 10 11 13 12 11 16 18 18 18 17 17 17 17 17 17 19 20 20 21 20 19 20 21
5 4 4 3 2 4 4 3 4 5 6 4 3 6 4 3 2 4 7 8 8 7 5 6 5 3 3 3 3 3 4 4 4 4 3 3 4 3 3 4 4 4 4 6 6 6 8 8 9 9 9 10 9 9 10 10 10 9 8 6 4 2 2 3 6 7 8 8 7 7 9 10 10 10 10 10 12 11 11 16 19 19 18 17 16 14 13 15 17 19 20 20 20 19 19 21 21
3 5 5 3 3 3 3 1 4 5 5 4 2 3 2 1 2 6 7 6 7 8 6 5 5 4 3 3 3 4 4 3 3 3 3 3 4 4 4 5 5 3 3 4 5 5 6 6 7 8 9 9 9 9 10 11 11 11 9 7 5 3 3 4 5 8 9 9 8 7 8 8 8 9 9 11 14 12 12 17 19 19 18 17 16 14 13 14 17 18 19 20 18 16 17 19 20
3 2 4 4 3 3 1 1 3 4 2 4 5 3 2 3 1 4 5 5 7 7 6 6 5 4 3 3 4 3 3 3 3 3 3 4 5 5 6 7 6 3 2 3 3 4 5 5 5 7 9 9 8 8 9 10 11 11 10 9 8 7 4 2 4 7 8 8 9 9 8 9 9 8 8 12 15 15 14 17 18 18 16 15 16 16 15 15 16 17 18 20 20 18 17 18 19
5 1 1 3 1 1 3 3 2 2 2 3 6 4 2 4 2 5 6 8 8 7 7 6 7 6 3 2 2 2 2 3 4 3 3 3 4 5 6 8 7 4 4 3 4 4 5 7 6 7 8 8 7 7 7 9 9 9 10 10 10 9 8 6 3 3 5 6 7 7 8 10 12 10 9 11 14 15 16 17 17 16 15 14 15 16 16 16 17 17 16 17 19 19 20 21 21
Wind_Direction
287 294 206 204 228 254 237 213 252 226 240 256 255 260 255 251 254 265 254 234 286 309 342 41 47 8 33 8 321 45 61 50 38 72 109 103 143 156 150 143 148 139 132 148 160 157 159 161 163 167 168 166 163 161 158 156 153 149 145 142 139 137 135 133 131 129 127 125 123 122 121 122 123 121 119 116 114 111 109 107 104 100 96 96 97 99 97 93 90 85 80 79 82 90 98 102 100
268 265 238 237 244 252 238 200 253 253 244 251 253 255 257 262 261 271 271 187 219 280 55 64 44 325 50 1 298 56 66 58 75 86 95 116 136 150 146 144 150 137 132 149 157 149 156 163 162 167 168 166 162 161 159 154 152 148 146 143 140 139 136 135 134 132 128 127 125 123 123 124 126 124 121 117 114 111 108 106 103 100 97 97 99 101 99 94 90 85 80 80 83 90 99 106 106
248 254 240 230 238 243 244 216 243 255 251 253 256 256 263 284 295 291 300 286 246 253 110 103 74 354 9 335 321 71 87 86 96 94 107 130 141 149 152 151 152 142 136 147 151 148 157 166 166 167 166 166 164 162 159 153 151 147 146 144 142 139 137 137 135 134 131 129 127 125 125 126 128 126 122 118 115 112 108 105 103 100 99 99 100 102 99 94 88 83 80 83 87 93 99 106 108
237 247 245 228 225 228 235 231 239 251 255 255 259 260 270 281 315 325 305 289 317 331 266 118 109 189 279 249 60 96 123 111 103 105 127 147 150 150 155 156 156 148 144 146 148 150 159 167 167 166 166 166 165 163 158 153 150 148 147 145 144 140 139 139 136 135 133 131 128 127 127 128 129 127 123 119 116 112 109 107 105 102 101 100 100 100 97 92 87 84 82 85 90 97 100 104 108
235 247 253 242 235 230 233 234 237 242 249 259 269 258 264 261 160 332 290 291 273 262 277 354 106 171 209 195 162 150 119 107 105 114 132 147 150 148 153 157 158 149 146 150 149 151 161 167 165 165 166 165 163 162 159 155 152 150 150 147 144 141 140 140 137 137 135 132 131 130 129 129 130 128 124 121 117 113 110 108 107 105 102 101 100 99 94 90 85 83 85 86 91 97 101 105 109
243 253 245 238 260 279 258 243 240 241 245 248 263 257 254 261 130 207 270 320 288 260 290 293 312 215 237 121 94 85 113 121 118 123 134 141 148 149 153 157 160 153 149 154 152 152 162 167 165 165 163 163 162 161 160 156 154 153 150 147 143 141 141 140 140 139 136 135 133 132 132 132 131 129 126 122 119 115 111 111 110 107 103 102 101 98 94 89 85 85 89 92 96 98 102 108 111
244 254 228 220 250 269 258 253 251 250 252 241 257 267 193 172 163 227 166 308 281 267 263 262 297 296 278 66 86 93 111 123 127 134 142 143 147 150 154 157 161 158 154 156 152 153 165 168 166 164 162 163 164 159 159 155 153 152 148 146 143 143 143 143 143 140 138 137 135 134 135 134 133 131 128 124 120 116 114 114 112 108 105 103 102 100 95 88 84 84 90 95 98 100 105 112 114
243 254 234 225 228 228 243 249 255 256 262 252 252 252 143 126 218 232 175 186 246 259 267 251 250 256 262 251 126 103 107 121 128 130 139 145 148 152 156 160 163 160 158 157 153 158 168 169 164 164 164 165 165 159 158 156 152 149 148 147 145 145 145 145 143 141 140 138 137 136 138 136 135 133 129 126 123 119 117 116 113 110 108 107 105 101 95 87 81 82 89 94 99 103 110 116 118
236 243 247 241 234 233 240 240 248 248 256 257 253 250 136 148 207 217 216 221 227 242 257 266 270 262 319 339 108 97 98 114 122 126 139 148 149 152 158 164 167 163 161 157 156 163 167 166 164 163 164 163 164 160 158 159 154 149 149 148 146 147 146 146 144 143 142 141 140 139 139 138 137 135 131 129 126 123 120 119 116 113 111 108 106 101 93 84 79 82 88 93 98 105 112 118 120
227 234 243 245 242 242 245 243 246 246 254 256 249 251 184 181 202 214 244 258 247 249 255 278 327 325 299 340 102 106 108 115 122 129 140 147 150 153 160 168 168 166 162 155 156 161 163 165 164 161 162 161 162 160 159 159 155 151 149 148 148 148 147 147 146 144 144 143 142 141 141 140 139 137 134 133 131 128 124 122 118 115 113 109 107 100 91 82 77 80 86 92 97 106 114 119 119
227 226 238 249 246 244 249 251 250 247 254 262 248 233 232 223 220 229 242 256 257 290 307 274 307 261 268 78 102 123 121 121 123 128 140 147 151 151 158 169 168 171 164 151 152 156 160 164 163 161 160 161 161 160 160 159 156 152 150 150 150 150 150 148 146 146 147 146 144 143 143 143 141 138 137 137 134 131 128 125 120 117 114 110 107 100 90 81 77 80 85 92 98 107 115 119 118
238 225 225 240 248 247 252 255 254 257 256 264 257 210 224 244 231 244 249 255 267 277 252 246 298 294 270 70 118 138 123 113 112 123 142 149 153 155 159 169 168 176 164 147 150 154 156 160 160 160 159 159 161 160 159 157 157 156 153 152 153 152 151 150 147 149 151 149 147 145 145 145 143 142 141 140 139 136 132 128 123 120 116 111 107 100 90 83 79 83 88 93 99 109 117 119 114
243 237 229 232 249 258 260 262 261 264 264 264 265 219 240 251 238 240 252 271 272 267 265 139 326 329 309 356 117 131 118 118 122 132 152 158 159 160 161 167 167 188 174 149 151 154 152 157 157 157 158 158 159 159 158 157 158 158 156 153 153 152 150 150 149 151 153 152 148 146 147 146 144 145 145 145 145 142 137 132 128 124 119 113 108 102 93 88 85 87 92 96 101 110 117 113 106
239 247 248 245 246 256 263 268 270 262 257 259 259 259 256 248 241 259 292 277 263 265 317 332 308 330 309 339 119 132 139 140 142 143 154 163 162 160 160 165 163 187 204 157 152 152 151 154 155 156 156 157 158 156 156 157 159 159 158 156 153 151 150 151 150 150 152 151 150 149 150 147 145 147 148 151 150 147 142 137 133 129 122 114 111 107 99 93 89 91 95 100 105 111 114 108 104
242 253 255 262 255 253 257 257 265 262 264 273 261 233 244 239 132 303 295 274 283 327 312 263 147 348 295 292 152 149 143 143 151 147 147 158 160 153 150 155 155 178 246 164 152 149 150 152 152 156 154 155 157 154 155 157 159 159 160 159 156 155 153 153 153 152 150 150 151 152 154 151 148 148 149 151 151 150 147 143 139 133 126 119 116 112 106 98 92 93 97 101 106 110 110 105 105
239 260 256 257 262 260 258 258 263 262 269 285 290 56 243 34 82 264 294 310 292 306 285 264 54 297 269 297 283 139 143 150 158 152 145 146 141 139 138 136 150 184 265 176 155 151 149 151 152 155 153 154 156 154 156 157 159 161 161 162 161 160 157 156 156 157 153 150 152 154 156 154 152 151 151 150 149 150 149 149 144 137 130 124 123 119 112 102 96 97 100 102 103 105 105 103 103
226 248 257 250 256 258 261 260 260 277 289 109 70 56 128 153 236 217 286 306 279 288 296 289 286 285 269 303 60 134 150 153 154 149 147 143 131 131 130 130 146 167 193 186 167 161 155 153 152 154 155 155 154 155 157 158 160 162 163 163 162 161 160 159 156 158 156 152 153 154 152 152 154 153 152 152 150 151 154 153 147 141 135 132 130 125 118 108 102 101 101 102 102 102 102 102 100
227 225 247 252 251 251 263 261 252 291 276 189 81 31 359 266 274 204 228 258 248 269 281 284 285 292 282 294 337 158 168 156 157 151 143 140 126 116 119 145 166 163 171 176 170 169 164 160 156 155 157 155 152 153 157 158 160 162 164 163 162 161 161 162 157 156 157 155 158 157 153 155 157 154 155 156 152 154 156 154 150 145 142 140 136 130 124 116 110 106 104 103 104 103 101 98 94
234 229 236 241 254 259 262 264 267 344 310 281 83 64 332 290 293 37 212 262 245 249 252 253 262 264 267 272 260 234 209 127 100 82 73 63 75 77 99 152 166 164 175 180 172 169 164 161 160 159 157 157 153 152 156 159 159 160 163 162 163 163 163 165 162 158 157 161 164 161 159 164 161 156 161 159 154 157 157 154 152 149 148 145 139 134 129 123 118 114 111 110 110 109 104 99 96
229 237 245 234 249 264 272 284 281 358 347 332 38 88 170 271 294 306 263 288 286 280 277 256 253 251 254 259 245 226 54 63 67 69 73 73 76 73 73 57 38 121 158 202 203 151 156 157 159 164 161 159 155 154 157 159 159 160 162 162 164 167 167 167 165 162 163 167 167 164 167 169 161 160 165 159 157 159 155 155 154 153 153 149 143 139 136 132 126 121 121 122 122 116 111 116 113
222 223 248 248 244 247 267 319 312 327 333 318 337 4 181 229 270 277 277 285 271 265 273 280 285 284 287 303 329 55 64 68 76 83 90 96 107 112 117 100 81 167 120 216 255 29 156 158 159 165 164 163 159 158 160 161 161 162 165 165 167 169 168 169 170 167 170 174 170 169 171 167 162 165 165 158 160 159 156 158 157 157 155 151 147 143 142 140 131 123 123 128 128 114 106 120 121
234 228 241 258 262 267 307 338 342 349 327 314 305 293 293 276 249 262 265 265 271 272 284 324 332 331 343 353 1 42 72 80 86 96 112 124 132 137 145 147 158 178 158 188 237 326 155 158 158 160 164 170 163 161 160 162 164 164 168 168 169 171 169 173 174 171 175 178 174 170 168 166 166 168 165 160 160 158 159 160 158 158 157 153 149 148 150 144 140 136 120 119 120 115 109 114 118
232 242 239 255 265 280 312 321 356 357 313 305 291 285 296 288 270 273 274 273 283 287 305 343 339 342 357 353 351 27 76 85 92 106 122 125 130 139 152 159 164 175 171 164 181 165 162 157 158 159 164 171 164 163 162 164 168 167 169 169 171 172 171 176 176 175 179 180 178 171 168 170 167 165 166 163 160 160 161 159 160 163 161 158 153 158 164 152 155 170 169 139 130 129 121 115 115
220 251 249 259 270 278 295 293 314 325 284 284 287 289 284 272 272 274 271 265 268 284 304 325 310 339 356 333 338 18 83 90 90 81 81 101 122 139 149 160 166 168 162 161 163 166 180 164 163 164 161 163 163 169 170 170 172 171 173 172 174 173 173 178 178 178 179 180 181 173 169 170 166 166 167 163 162 164 164 162 167 168 166 167 162 167 175 169 168 167 166 155 139 127 120 113 112
227 253 259 270 292 308 295 281 283 288 279 275 277 275 271 270 282 280 272 271 279 295 303 312 315 350 339 324 343 6 93 97 87 76 81 103 122 136 142 155 164 158 147 154 161 166 178 173 172 169 163 165 169 175 177 176 177 175 176 176 176 176 176 179 178 178 178 179 180 174 171 168 166 169 168 165 168 169 167 166 171 172 168 170 170 168 169 170 168 159 151 146 136 125 119 116 116
230 235 257 284 283 283 272 275 269 265 265 266 264 257 260 262 273 275 269 276 283 276 291 325 324 324 314 315 314 312 98 98 96 92 95 109 122 134 141 152 165 161 149 155 162 167 178 183 185 175 169 172 174 178 181 179 180 178 178 178 179 178 178 179 177 177 177 177 178 175 175 171 168 170 169 170 172 169 164 164 172 178 170 167 170 166 162 162 159 155 150 141 135 128 125 123 121
254 235 259 267 276 281 249 263 259 250 245 250 256 253 255 246 240 255 250 253 266 276 308 324 297 290 296 291 284 94 100 105 113 112 108 112 122 133 143 159 169 168 161 162 164 166 177 185 191 185 179 179 179 184 187 184 182 180 179 180 181 180 179 178 177 175 176 178 177 174 176 175 171 169 168 172 174 168 162 164 171 179 175 169 170 164 160 160 156 152 146 138 134 131 131 129 129
283 283 304 251 260 271 241 241 247 250 234 231 253 260 254 234 215 244 259 305 334 327 314 300 289 291 287 277 281 90 96 103 111 113 113 112 125 132 144 168 178 180 175 172 169 167 174 182 190 193 187 183 183 187 193 190 186 182 181 182 181 182 181 178 177 175 176 180 179 176 176 175 172 168 167 169 171 166 164 167 168 172 173 173 171 163 158 157 156 151 141 136 132 132 135 135 137
252 258 279 249 234 235 231 223 225 244 212 188 233 256 246 223 209 229 184 64 336 305 291 297 297 291 281 266 307 81 85 89 93 97 108 116 130 134 141 166 186 193 189 187 182 175 175 180 186 190 187 186 188 189 194 195 189 183 183 185 182 182 183 179 178 177 177 180 180 178 176 175 173 170 168 165 166 166 165 166 165 166 168 171 168 161 161 159 156 151 144 139 134 136 139 140 144
252 239 254 251 234 220 212 209 207 224 170 150 219 257 241 211 197 216 63 66 290 295 289 292 273 276 288 286 53 73 82 82 85 94 112 122 129 137 144 157 177 194 195 196 201 195 181 176 181 185 186 189 190 191 195 195 189 184 186 188 181 180 183 180 180 179 178 179 180 179 174 176 173 169 169 164 165 167 165 165 163 163 165 168 165 163 166 160 155 154 151 148 145 147 144 145 150
244 239 236 240 254 218 183 184 190 193 159 159 219 264 268 189 148 102 30 311 305 308 285 289 289 337 356 15 39 59 78 74 78 91 108 117 126 146 153 154 160 180 191 194 203 207 194 181 181 184 189 190 189 194 198 197 190 186 188 184 176 179 183 183 181 179 179 177 177 178 175 177 173 169 169 165 165 168 166 166 165 164 165 165 165 166 166 159 156 159 159 153 154 159 154 157 156
224 241 229 223 255 206 165 174 187 205 174 177 222 254 246 101 93 78 3 297 309 290 285 353 355 16 22 23 29 33 59 64 72 92 112 119 127 152 159 160 159 164 182 193 201 205 201 196 189 187 190 190 192 196 198 205 191 185 187 178 175 179 180 185 185 180 178 175 175 178 178 178 175 173 171 166 167 168 168 168 166 166 167 165 168 169 168 167 163 162 165 158 161 169 161 167 166
210 235 234 232 236 167 165 178 184 210 201 183 214 260 242 109 99 97 34 307 324 287 337 48 16 31 31 18 39 45 50 48 52 75 111 126 139 157 162 169 167 166 175 193 204 205 203 205 200 192 190 191 195 193 199 236 192 184 185 177 179 178 179 188 185 183 180 174 176 179 180 178 175 176 173 169 169 169 171 172 173 176 171 167 174 176 173 177 173 167 170 165 167 176 172 175 170
200 217 236 254 238 179 172 176 180 203 207 212 220 246 262 113 119 125 122 310 332 348 35 49 42 56 44 29 52 62 60 52 43 34 57 96 144 152 157 172 176 178 177 195 210 208 206 209 207 200 195 194 195 192 201 224 190 188 189 179 182 181 185 190 178 184 186 175 179 180 181 179 175 178 177 175 171 169 177 177 182 187 177 173 179 180 178 181 181 175 174 175 177 186 195 190 176
221 214 223 254 242 215 233 159 164 176 168 230 244 237 228 145 152 166 141 222 298 47 54 32 53 65 51 53 60 63 63 54 39 7 0 5 78 149 154 169 173 179 183 196 208 210 212 213 212 208 204 201 197 191 190 196 191 196 194 183 188 191 194 196 178 189 191 179 179 180 181 178 175 178 180 181 177 173 180 181 188 192 183 183 187 185 185 185 186 184 181 187 191 200 223 220 189
289 266 251 264 259 236 245 131 126 156 175 218 240 241 228 164 154 173 140 150 299 70 77 7 66 72 54 61 64 61 61 54 37 5 358 6 16 147 158 156 168 183 188 192 197 209 215 215 220 218 212 207 200 188 171 178 187 194 203 195 195 197 201 204 193 195 193 180 179 181 181 179 176 177 179 185 185 179 177 180 187 192 187 190 194 191 192 194 193 190 188 196 204 212 234 251 211
310 309 292 281 296 264 226 140 123 117 272 256 256 253 236 156 117 199 128 142 222 127 99 42 69 79 62 62 69 65 59 52 39 14 12 19 24 59 152 153 166 186 194 198 198 207 216 216 227 228 219 210 202 193 177 175 180 181 199 208 201 197 201 211 204 203 203 185 181 181 180 181 180 179 181 187 190 181 171 178 184 185 187 193 199 198 198 202 203 199 196 199 207 217 228 246 245
288 291 277 262 266 263 253 209 160 140 171 269 262 261 250 153 163 207 181 182 195 107 98 65 60 76 73 65 68 68 58 47 39 25 20 22 27 30 27 83 164 221 227 222 213 215 221 223 231 232 224 213 203 194 180 172 171 171 188 201 199 196 200 210 206 211 222 194 181 179 176 178 181 182 185 190 194 186 174 181 188 185 187 193 200 203 203 208 211 205 202 203 207 218 224 232 244
268 261 262 263 258 256 266 282 261 124 141 271 258 251 244 212 212 203 205 208 168 99 105 87 67 69 76 74 64 62 58 46 40 35 26 19 26 30 27 30 16 346 314 291 288 243 225 240 255 252 244 226 210 191 171 167 173 178 191 194 198 203 203 208 200 212 235 205 181 177 174 176 181 182 185 189 194 192 184 184 190 193 191 194 201 203 205 212 215 210 203 204 207 213 223 228 237
255 255 257 258 262 266 257 273 298 253 218 249 270 266 239 222 216 197 215 211 156 149 118 91 86 79 73 71 66 63 59 49 45 38 30 22 26 32 34 34 26 17 3 328 312 280 237 259 278 253 262 245 217 200 184 182 186 190 196 198 205 207 204 206 199 218 239 213 180 176 175 176 182 183 184 187 190 192 194 192 190 196 194 195 202 203 206 210 215 216 208 206 207 209 217 223 231
243 251 267 269 269 275 271 265 278 271 242 230 266 279 259 225 209 197 205 196 168 162 132 100 93 93 87 78 70 67 61 57 51 39 30 25 25 28 34 38 35 26 13 351 328 305 279 256 109 188 231 229 209 198 191 193 189 184 188 194 202 200 197 205 204 220 234 210 180 179 178 175 181 183 184 187 191 194 199 200 198 200 200 200 203 205 209 211 213 217 213 209 209 212 219 224 229
260 257 281 285 273 261 262 256 248 257 254 230 236 257 262 227 210 192 179 194 188 143 114 131 116 91 87 81 75 69 61 61 55 44 31 22 20 20 29 38 37 28 19 11 14 11 324 259 82 142 203 196 200 194 187 197 198 189 187 187 185 180 185 203 206 218 224 205 182 182 180 178 180 182 186 187 191 196 198 201 202 204 205 205 204 205 209 212 214 216 214 211 211 215 223 238 247
273 286 294 278 261 248 252 253 246 245 252 237 224 236 255 236 218 182 172 192 151 59 22 356 33 57 52 56 64 63 56 59 58 50 36 22 21 19 27 37 38 34 26 19 34 51 62 94 89 93 185 177 197 204 187 193 210 205 192 184 180 170 167 195 211 224 225 204 184 184 181 182 183 183 189 190 192 197 197 199 203 204 207 210 209 208 210 213 216 215 213 210 209 213 217 231 250
263 291 278 270 264 257 254 254 252 250 258 249 230 235 254 261 280 177 168 157 75 59 30 357 344 3 23 26 43 50 45 51 57 51 38 28 24 19 29 41 43 39 29 32 65 74 79 93 101 105 144 166 186 220 209 202 213 205 185 175 177 173 175 192 204 218 227 208 185 186 184 184 186 186 190 192 194 199 201 201 204 204 206 211 212 212 212 214 215 214 213 210 208 209 209 217 230
267 279 271 267 266 263 260 258 256 253 259 255 239 240 251 239 76 105 148 124 85 90 87 10 305 339 14 4 24 37 22 31 49 52 41 34 30 24 33 44 47 42 34 46 85 78 72 78 98 113 125 177 184 205 217 207 206 195 182 176 181 184 189 195 195 198 216 213 189 187 189 186 188 192 193 194 197 200 203 203 204 206 206 207 211 214 215 214 214 215 214 210 206 209 212 214 222
269 297 290 273 265 264 262 260 263 261 255 254 250 245 250 235 125 134 165 157 155 133 131 180 219 42 29 347 349 23 13 16 40 50 44 37 33 28 35 45 47 46 41 42 52 46 59 67 83 108 113 182 184 177 187 194 201 198 191 187 187 192 194 190 187 191 203 206 191 189 193 191 192 196 196 197 199 201 205 205 204 207 210 209 209 212 215 214 215 216 215 213 212 214 216 217 222
277 284 278 268 257 254 257 256 261 265 257 255 260 251 231 244 189 157 162 141 153 147 150 168 139 93 73 3 342 25 20 10 33 46 44 39 34 30 37 43 43 47 47 39 36 36 50 77 82 97 106 135 162 160 188 191 199 204 200 197 195 197 193 184 185 196 199 198 194 194 194 193 194 198 199 200 201 201 204 207 207 209 212 214 214 212 214 214 213 215 216 216 218 219 218 219 224
272 271 269 270 259 247 246 244 239 252 259 261 270 271 235 235 236 138 120 91 115 130 142 155 143 127 91 42 11 43 30 11 29 39 44 41 33 31 35 38 33 39 47 41 37 40 48 77 95 90 104 132 147 152 218 201 200 208 209 211 208 198 192 189 191 195 197 198 199 199 197 195 198 202 203 205 208 206 204 206 207 209 211 215 217 216 215 213 211 214 217 217 219 221 221 222 225
248 258 264 265 268 258 243 242 236 242 261 285 311 313 280 254 63 104 128 110 105 106 118 151 155 131 83 48 23 41 38 29 28 30 43 44 35 32 33 33 27 30 44 44 42 47 52 66 82 78 85 106 173 201 210 197 202 212 220 226 220 204 197 201 200 194 197 201 201 211 213 207 209 213 215 220 221 218 216 212 211 212 214 215 218 219 219 216 212 213 216 219 221 223 225 226 227
251 268 287 276 283 271 250 251 261 257 267 291 315 308 281 108 90 140 136 124 114 113 136 157 128 106 72 50 43 41 42 38 25 21 36 42 39 36 34 33 27 27 38 45 50 53 55 63 73 78 77 75 91 183 187 195 209 222 234 232 211 210 213 217 208 192 195 201 203 214 217 214 218 223 226 230 230 229 228 226 227 230 230 228 225 222 222 222 219 216 215 217 223 227 228 229 231
270 292 319 301 283 269 267 274 266 273 296 296 297 292 264 143 188 183 144 126 126 130 150 161 131 112 50 19 51 48 44 36 20 23 36 44 46 41 39 35 28 27 34 45 50 51 56 64 69 73 73 70 73 93 127 174 211 229 242 234 204 214 222 224 220 204 202 211 217 222 222 217 218 221 225 233 240 241 239 237 238 239 241 248 252 249 241 234 230 225 220 220 225 228 228 230 234
272 298 279 263 191 189 286 280 274 285 294 273 249 122 55 48 138 151 147 142 145 161 169 173 173 159 182 298 59 57 54 40 21 23 28 39 50 50 45 35 30 31 34 47 51 48 56 67 70 70 70 69 69 71 78 85 98 220 243 226 214 224 228 226 225 219 218 228 237 243 243 236 230 226 221 234 252 250 247 247 243 238 235 238 249 266 267 255 247 239 231 227 227 226 226 229 234
312 283 263 270 183 212 272 278 289 290 264 259 233 123 107 128 145 149 174 175 166 181 182 172 173 160 153 152 75 74 69 57 42 38 29 28 48 54 45 34 39 38 30 41 54 53 52 60 67 67 65 69 73 69 68 72 73 66 55 87 194 226 240 239 229 224 230 237 242 248 251 246 239 230 222 227 232 232 243 251 248 241 238 237 237 242 246 250 254 251 243 236 232 229 229 232 236
283 279 303 318 259 241 259 264 279 265 252 268 159 131 149 175 190 165 211 200 177 177 175 164 168 154 134 107 75 72 65 58 52 48 34 23 45 57 48 45 57 51 35 32 46 59 54 48 59 65 59 57 66 71 67 68 75 71 61 64 84 201 248 268 254 234 235 242 244 248 252 250 242 239 242 240 231 230 244 254 252 243 239 241 242 241 241 245 255 259 255 250 242 237 238 240 242
291 314 329 326 235 242 248 233 260 264 258 260 132 138 162 180 167 182 207 202 176 172 173 164 168 158 125 86 67 75 72 59 50 56 52 34 52 75 75 80 84 65 43 31 25 48 60 49 49 60 62 56 54 61 62 59 64 65 62 65 71 108 193 263 271 252 242 242 245 252 258 255 248 248 255 252 243 242 247 253 255 250 244 243 244 249 256 259 261 260 257 256 251 246 247 250 250
317 323 300 235 189 244 251 233 290 292 283 275 201 164 156 113 149 177 190 193 178 177 176 163 155 147 132 95 68 67 72 70 57 59 64 51 54 72 83 85 85 65 51 49 23 22 47 52 50 48 49 54 52 53 57 54 53 54 55 62 70 84 151 199 234 246 250 255 256 256 261 263 258 252 250 250 249 247 246 251 255 253 250 248 246 251 258 260 261 258 255 257 259 256 254 254 254
295 315 289 257 228 252 241 210 274 282 292 287 284 285 112 108 132 136 144 191 199 180 166 159 152 141 125 91 72 65 75 85 75 53 46 52 53 61 75 77 69 49 48 65 46 25 13 17 55 56 40 39 40 42 55 55 46 42 44 50 62 69 82 139 202 219 233 255 267 268 270 274 269 255 244 247 250 248 247 250 251 251 252 250 249 253 255 257 259 259 259 262 262 259 257 259 264
279 213 216 263 282 275 247 242 264 277 272 290 303 307 101 107 144 151 167 196 188 163 155 157 152 138 116 93 83 88 104 95 83 68 35 40 56 60 77 86 81 56 35 36 44 40 8 2 33 61 47 31 23 24 47 59 49 38 38 42 50 57 56 56 86 166 197 225 250 260 261 266 271 268 258 254 255 254 250 244 243 247 249 250 253 255 255 256 257 257 260 264 263 261 261 266 273
Height
772 773 772 772 770 771 770 769 787 783 781 792 781 776 767 749 747 748 746 745 749 743 732 737 741 741 747 754 754 754 759 767 772 783 790 773 766 772 772 774 775 776 778 781 783 786 788 789 790 793 795 796 797 797 798 800 802 803 804 805 805 806 806 807 808 809 810 811 812 812 814 814 816 817 819 820 821 822 822 822 823 823 823 824 824 825 825 826 826 825 825 825 825 825 826 827 828
772 774 772 773 769 773 771 767 792 790 785 794 778 771 761 746 751 753 749 751 755 743 734 737 740 740 742 745 744 752 761 760 760 767 770 766 769 772 772 774 775 777 779 780 784 787 790 790 792 793 796 798 799 799 799 800 802 804 805 806 807 807 808 809 809 810 811 812 813 813 815 815 817 819 820 821 822 823 824 824 824 824 824 825 826 826 827 827 827 826 826 826 826 826 827 827 828
772 773 772 773 769 770 769 771 793 795 793 794 778 765 755 753 758 756 748 746 744 734 735 740 743 743 745 751 749 759 767 758 757 763 765 767 769 770 772 773 775 778 779 781 784 788 791 792 793 794 796 799 800 801 800 800 802 804 806 807 808 808 809 810 811 811 812 813 814 815 816 817 818 820 821 822 823 824 825 825 825 825 825 826 827 827 828 828 827 827 827 827 827 827 827 828 829
771 772 771 770 771 772 775 782 788 791 794 787 777 763 754 757 756 754 747 740 734 732 737 742 748 743 746 758 752 757 765 758 757 761 765 766 767 769 771 773 775 777 780 782 785 788 790 792 794 795 797 799 801 802 801 800 802 805 806 808 809 809 810 811 812 812 813 813 814 816 817 819 820 821 822 823 825 825 826 826 826 826 827 828 828 829 829 829 828 828 828 828 828 828 828 828 829
771 772 770 768 774 773 774 781 780 784 786 776 774 762 752 751 750 754 746 738 735 736 737 739 749 742 741 748 746 755 760 758 758 758 762 764 766 769 770 774 776 776 780 783 785 788 789 792 794 796 798 800 802 803 802 801 802 804 807 808 809 810 811 812 813 813 814 814 815 817 818 820 821 822 823 824 826 826 827 827 828 828 828 829 830 830 830 830 829 829 829 829 829 828 828 829 830
771 770 767 766 768 766 773 782 778 778 770 763 768 756 749 745 744 751 746 743 738 735 736 738 745 744 745 739 738 748 751 755 758 757 761 764 766 769 771 773 775 776 779 782 785 787 789 792 794 797 799 801 803 804 804 803 802 804 806 808 809 810 811 813 814 815 815 816 816 818 819 821 822 824 824 825 826 827 828 829 829 829 830 830 831 831 830 831 830 830 830 829 829 829 829 830 831
771 770 766 769 770 767 782 785 777 773 758 750 756 751 748 745 743 747 749 757 750 737 736 738 738 746 751 741 743 745 743 751 753 756 760 763 767 768 771 773 775 776 779 781 784 786 788 791 793 796 798 801 803 804 806 805 805 805 806 808 809 811 812 814 815 815 816 817 818 819 821 822 823 825 825 826 827 828 829 830 831 831 831 832 832 832 831 832 831 831 831 830 830 830 830 831 832
770 770 765 773 778 775 783 782 773 768 754 743 743 743 745 745 743 745 749 758 755 742 738 737 735 749 750 739 750 748 743 751 752 757 759 761 766 769 772 773 775 777 779 781 783 785 787 790 792 795 797 800 803 804 806 807 807 807 808 808 810 811 813 814 815 816 817 818 819 820 822 823 824 825 826 827 829 830 831 831 832 832 832 833 833 833 832 832 832 832 831 831 831 831 832 832 833
767 769 766 773 780 778 778 777 770 761 751 742 738 736 740 744 742 743 747 747 744 741 740 736 735 750 748 741 754 749 745 752 753 757 758 762 765 768 773 773 776 777 780 781 783 784 786 790 792 794 797 799 802 804 806 808 809 809 809 810 811 813 814 815 816 817 818 819 820 821 823 824 825 826 827 828 830 831 832 832 833 833 833 834 834 833 833 833 833 833 832 832 832 832 833 833 834
766 767 769 774 778 781 779 772 764 755 747 739 735 732 734 739 739 742 745 743 739 740 738 732 736 748 748 748 755 750 749 752 752 757 758 762 764 768 772 774 777 777 781 781 782 784 786 789 791 794 796 799 802 803 805 808 810 810 811 811 813 814 814 815 816 818 819 820 821 822 823 825 826 827 829 829 831 832 833 833 834 834 835 835 834 834 834 834 834 834 834 833 833 834 834 835 835
771 766 767 777 781 783 779 769 760 751 743 736 732 729 730 731 736 740 742 743 738 739 738 735 742 746 745 751 756 750 749 752 753 757 758 761 763 767 771 775 778 779 781 781 783 786 787 790 791 793 795 799 801 803 805 807 810 812 812 812 814 815 815 816 817 818 820 821 822 823 824 825 827 828 829 830 832 833 834 834 834 835 835 836 835 835 835 835 835 835 835 834 835 835 835 836 837
774 769 767 782 783 777 770 765 758 749 743 739 734 728 728 729 737 742 743 744 739 741 738 737 741 739 747 754 754 750 748 753 755 758 760 762 764 766 770 774 779 783 783 782 785 788 789 791 793 794 795 798 801 803 805 807 810 812 813 813 814 815 816 817 817 819 821 822 823 824 825 826 827 829 830 831 833 834 834 835 835 836 836 836 836 836 836 836 836 836 836 836 836 836 837 838 838
773 769 770 779 774 769 764 760 755 750 748 742 735 728 726 732 739 740 742 744 742 745 737 732 734 736 750 752 750 751 750 753 755 758 760 762 765 767 771 774 778 786 788 785 788 790 791 793 794 796 797 799 801 803 805 807 810 812 814 815 815 816 817 818 818 820 822 823 824 825 826 827 828 829 831 832 833 834 835 836 836 837 837 837 837 837 837 837 838 838 838 837 837 837 838 839 840
768 764 768 773 767 765 762 760 756 754 753 738 731 729 730 733 734 734 741 748 745 740 733 727 730 742 751 750 754 754 749 752 754 757 759 762 766 768 773 776 778 788 795 791 791 793 792 794 795 797 797 800 802 803 806 808 809 812 814 815 816 817 818 819 819 821 822 823 825 826 827 828 829 830 832 833 834 835 836 836 837 838 838 838 838 838 839 839 839 839 839 838 838 839 840 841 842
764 761 765 771 768 765 760 758 754 754 751 735 729 728 731 729 728 737 742 748 743 729 729 728 729 747 752 751 757 751 747 750 753 757 759 764 768 772 777 779 780 789 800 798 797 797 795 797 797 798 799 800 802 804 807 808 810 812 814 816 817 818 819 820 820 821 822 824 825 826 828 828 830 831 832 833 834 835 836 837 837 838 838 838 839 839 840 840 840 840 840 840 840 841 842 843 844
759 761 768 774 772 768 760 753 751 753 746 735 729 727 735 733 730 742 738 740 743 730 732 735 732 743 747 745 747 744 747 750 752 757 760 766 771 775 778 780 783 791 802 803 802 801 799 800 800 801 801 802 803 805 807 809 811 812 814 816 817 818 819 820 821 822 823 824 825 827 828 829 830 832 833 834 834 836 836 837 838 838 839 839 840 840 841 841 841 841 841 841 841 842 843 845 845
757 765 774 776 773 769 759 752 752 751 742 736 734 731 742 743 736 738 733 736 745 739 737 738 733 735 739 739 739 741 746 749 753 757 759 766 771 776 780 783 787 792 800 803 804 803 802 803 802 803 803 804 804 805 808 810 812 813 815 816 817 818 819 821 821 822 823 824 826 827 829 829 831 832 833 834 835 836 837 837 838 839 839 840 841 841 842 842 842 842 842 842 842 843 844 846 847
761 770 778 778 772 763 753 747 743 742 740 736 738 739 745 749 743 735 737 743 745 746 743 739 737 735 736 735 737 742 744 747 752 757 763 767 772 779 783 787 790 791 795 798 800 802 803 804 804 804 805 805 805 807 809 810 812 814 816 817 818 819 820 821 821 822 823 825 827 828 829 830 831 832 833 834 835 836 837 837 838 839 840 841 842 842 843 843 843 843 843 844 844 844 845 846 847
764 769 776 775 765 753 743 738 733 738 741 734 737 744 748 750 745 739 747 751 745 749 747 743 743 740 738 735 736 738 740 747 755 763 771 775 781 787 790 792 792 791 794 796 797 800 802 804 806 805 805 805 805 807 809 811 813 814 816 817 818 819 820 821 822 823 824 825 826 828 829 830 831 832 833 834 835 836 837 837 838 839 840 841 842 843 843 843 843 843 844 845 845 845 846 847 848
763 766 774 768 757 749 740 736 731 736 742 740 742 745 750 750 744 743 750 753 750 752 749 745 746 743 739 735 732 734 741 753 762 768 775 781 786 791 794 797 797 797 801 803 800 799 799 802 807 807 807 806 805 806 808 810 813 814 816 817 818 818 820 821 822 823 824 825 826 828 829 830 831 832 833 834 835 836 836 837 838 839 840 842 842 843 843 843 843 844 844 845 845 846 847 849 849
762 764 770 759 749 748 740 737 734 734 740 745 747 748 752 749 746 748 751 757 757 751 745 743 744 741 738 735 732 736 748 760 764 769 774 780 784 786 789 794 798 801 804 806 805 801 797 797 802 806 808 808 807 806 806 809 811 813 815 816 817 818 819 821 822 824 825 826 826 828 829 830 832 832 833 835 835 836 836 837 838 839 840 841 842 843 843 843 843 844 844 845 845 846 847 849 850
762 760 761 753 748 748 739 738 740 740 743 746 751 753 751 746 748 750 751 759 757 746 739 738 740 739 739 739 737 741 753 762 764 768 771 773 776 779 780 783 790 796 802 805 805 804 799 797 797 802 808 810 810 808 808 809 811 812 813 815 816 818 819 820 822 823 824 825 826 827 829 831 832 832 834 835 835 836 837 837 838 839 840 841 842 842 843 843 843 844 845 845 846 846 847 849 850
764 760 754 751 749 749 745 743 747 748 752 754 755 753 749 751 754 749 750 755 750 741 738 738 740 740 741 743 743 747 756 762 763 765 767 771 775 778 780 780 781 785 791 799 804 805 804 801 799 800 806 811 813 812 811 811 812 813 813 814 815 817 818 820 821 822 824 825 826 827 829 831 832 833 834 835 836 836 837 838 838 839 840 841 841 842 843 843 843 844 845 845 846 847 848 850 850
762 763 755 751 748 748 749 748 750 752 757 757 754 753 753 757 757 751 751 751 745 741 739 741 742 740 744 747 747 750 757 762 764 766 769 775 780 782 783 783 782 782 783 790 799 804 806 805 801 800 802 807 811 812 812 811 812 813 813 814 815 816 817 819 820 821 823 825 826 828 829 830 832 833 834 835 836 837 837 838 839 839 840 841 841 842 843 843 844 845 845 845 846 848 849 850 850
762 763 755 752 751 751 751 751 752 754 757 756 756 759 757 755 754 754 753 747 743 743 742 742 744 744 748 750 750 752 758 763 766 770 773 776 780 782 782 782 783 785 784 785 793 799 803 805 804 801 799 802 805 807 809 810 810 811 812 813 814 815 817 818 820 821 823 825 826 827 829 831 831 833 833 835 836 837 837 838 839 840 840 841 841 842 842 843 843 844 845 846 847 848 848 849 850
759 759 756 755 756 755 754 754 755 756 756 756 759 762 757 752 754 758 754 747 744 743 745 746 747 750 751 751 751 751 758 765 768 772 775 777 780 781 782 780 781 785 785 784 789 794 799 803 805 804 801 802 805 806 807 808 809 810 810 812 813 814 816 818 819 821 822 824 826 827 829 830 831 833 833 834 836 836 837 837 839 840 840 840 841 842 842 843 843 844 846 846 847 848 849 850 850
754 753 756 758 757 755 756 758 756 755 755 756 760 762 757 751 757 763 752 744 745 745 749 750 751 753 752 751 749 750 757 765 768 771 774 779 781 782 783 782 782 784 786 783 782 786 793 798 802 803 802 802 805 807 808 808 808 809 810 811 813 814 815 817 819 820 822 824 825 827 829 830 832 833 833 835 835 836 836 837 839 840 840 840 841 842 842 843 843 844 845 846 847 847 849 849 850
755 756 760 760 758 758 757 759 757 755 756 755 756 760 756 752 758 761 750 743 747 751 754 752 752 752 750 750 749 751 758 765 769 770 773 778 780 782 783 783 783 783 784 782 778 776 780 788 795 799 800 801 804 806 808 809 808 809 810 811 812 814 815 816 818 820 822 824 825 827 829 831 832 833 834 835 835 836 836 837 839 839 840 840 841 842 842 843 843 844 845 846 847 848 849 850 850
759 759 766 764 759 761 758 756 756 755 756 752 755 765 762 756 758 753 748 749 751 754 756 754 754 752 750 748 747 753 761 766 770 771 773 777 779 781 782 783 783 782 782 782 781 777 775 779 786 792 796 798 801 804 807 808 808 809 810 811 812 814 815 816 818 819 822 823 825 827 829 830 832 833 834 835 835 836 836 837 838 839 840 840 841 842 842 843 843 844 845 846 847 848 849 850 851
762 760 767 766 764 764 756 754 754 755 756 749 757 776 768 754 754 749 748 752 753 756 757 755 754 752 750 748 748 756 763 768 771 773 775 776 778 780 781 783 783 783 783 784 784 783 782 782 786 791 794 796 798 802 804 805 806 808 810 811 812 814 815 816 817 819 821 823 825 827 829 830 832 833 834 835 835 836 836 837 838 839 840 840 841 842 842 843 843 844 845 846 847 848 849 850 851
764 764 765 766 770 763 751 752 755 758 757 748 760 780 767 750 751 752 751 753 755 758 757 755 753 752 753 751 753 758 763 769 773 776 777 777 778 779 781 783 783 784 785 786 786 785 785 785 786 790 793 795 798 801 803 805 805 807 809 811 812 814 815 817 817 819 821 822 824 827 829 830 831 833 834 834 835 836 836 837 837 838 839 840 841 842 842 843 844 844 845 846 847 848 849 850 851
763 771 772 766 766 759 750 750 753 757 755 748 761 776 766 755 756 755 754 754 756 760 757 756 756 757 758 759 760 762 766 770 774 777 779 778 779 780 782 782 783 784 785 786 785 784 785 786 787 789 792 795 797 800 804 805 804 805 808 810 812 814 816 817 818 819 821 821 824 827 829 830 831 833 833 834 835 836 836 837 837 838 839 840 841 842 842 843 843 844 844 845 847 848 849 850 851
763 770 774 765 759 759 757 751 747 750 753 752 761 770 763 759 758 756 756 756 757 759 758 759 762 762 764 765 765 768 772 775 776 777 779 779 780 781 783 783 783 783 784 784 784 785 786 788 789 789 790 793 795 799 803 805 806 808 808 809 812 814 816 818 819 820 821 821 824 826 828 830 831 832 833 834 835 836 837 837 837 838 838 839 841 841 842 843 843 844 844 845 846 847 849 850 851
765 764 767 760 752 755 758 753 746 746 753 756 758 763 761 758 758 758 758 758 759 761 762 763 764 766 769 768 770 774 778 780 780 778 778 779 781 782 782 782 783 783 784 784 783 785 786 788 790 790 790 790 792 796 801 806 809 810 809 809 811 814 816 817 818 820 821 822 824 826 827 829 831 832 833 834 834 836 837 837 837 837 838 839 840 840 841 842 843 843 844 845 846 847 848 849 850
762 762 764 760 750 750 755 755 750 747 756 762 760 762 760 757 758 759 759 759 761 762 765 766 766 770 771 771 774 778 781 782 782 780 778 779 780 782 783 782 784 784 784 784 784 785 786 788 789 791 792 791 792 795 800 805 810 811 811 810 811 814 816 816 817 820 821 822 823 825 827 828 830 831 833 833 834 835 836 837 836 837 838 838 839 840 840 841 842 843 844 845 846 846 847 848 850
756 755 758 759 753 750 750 752 750 748 758 763 761 762 757 756 758 758 759 760 762 764 766 768 768 771 773 774 778 780 782 784 782 781 780 780 780 781 783 783 785 786 786 786 786 787 787 788 789 791 792 792 794 796 798 803 808 812 813 813 813 814 816 816 816 818 820 821 822 824 825 827 829 830 832 833 833 833 834 835 835 836 837 837 838 839 839 840 841 842 843 844 845 846 847 848 849
757 758 759 759 758 755 747 749 750 749 761 764 759 759 754 755 761 759 760 762 764 766 769 770 770 774 777 778 781 782 783 783 783 782 781 781 782 782 783 784 785 786 786 786 787 788 788 789 790 791 793 793 794 795 797 800 804 810 814 815 815 815 816 817 817 817 819 820 821 822 823 826 828 829 831 831 832 833 833 834 834 835 836 836 837 837 838 839 840 841 842 843 845 846 847 847 849
762 765 765 762 762 756 745 745 746 747 764 767 759 759 754 755 762 761 762 765 767 767 770 773 773 776 779 780 782 783 783 784 784 784 782 783 784 784 784 785 786 787 787 787 787 788 789 789 791 792 794 794 795 797 798 800 803 808 813 815 815 815 816 817 818 818 819 820 820 821 822 824 826 828 829 830 831 832 832 833 833 834 835 836 836 837 838 838 839 840 841 842 843 845 846 847 848
765 765 767 767 760 753 749 746 743 747 765 769 761 759 757 756 760 761 763 765 767 767 770 774 777 779 780 782 784 784 785 786 786 785 784 785 785 786 786 786 787 787 787 787 787 787 788 789 791 794 796 797 797 800 800 801 804 807 811 813 814 815 816 818 819 820 822 821 819 819 821 823 824 826 828 828 830 831 831 832 832 833 834 834 835 836 837 837 838 839 839 841 842 844 845 846 848
767 765 768 769 758 758 764 757 751 752 760 765 763 759 755 755 759 763 764 763 765 768 769 773 777 779 781 784 785 786 787 788 787 787 786 786 786 787 787 788 788 787 787 787 787 788 788 788 790 791 794 797 797 799 801 802 803 806 809 811 812 812 814 817 819 823 825 822 819 819 820 822 823 824 826 827 828 829 830 831 831 832 832 833 834 834 835 836 837 838 839 840 841 842 844 845 847
765 762 766 767 759 762 768 763 759 758 757 758 765 771 763 757 764 767 764 763 766 768 771 776 778 778 781 785 787 787 788 788 789 788 788 787 788 788 788 789 789 788 788 787 787 788 788 788 788 787 789 794 796 797 799 801 802 804 806 809 811 812 814 816 818 823 826 823 818 818 819 820 821 822 824 825 826 827 828 829 830 831 831 832 832 833 834 835 836 837 838 839 840 841 842 844 845
769 763 763 765 762 764 767 763 765 773 773 761 765 787 781 760 761 769 768 768 769 771 775 779 779 780 783 786 788 789 789 789 789 790 790 790 790 790 790 790 790 790 789 788 788 787 787 787 787 787 787 790 794 795 797 801 803 803 805 807 809 812 813 815 816 821 825 821 817 817 817 818 819 821 822 823 824 825 827 828 829 829 830 830 831 832 833 834 834 835 836 837 839 840 841 842 843
779 768 762 763 763 765 766 764 769 780 780 762 759 784 787 766 761 766 769 774 776 781 786 786 785 784 786 788 790 791 791 791 790 790 791 792 792 792 792 792 792 792 790 789 788 787 787 787 786 787 788 788 793 796 796 800 803 805 806 805 807 810 813 815 818 822 823 819 816 816 815 816 817 819 820 821 823 823 825 826 827 828 829 829 830 831 831 832 833 834 835 836 837 838 840 840 841
779 766 762 764 764 766 765 764 769 770 768 761 754 768 783 781 774 765 765 779 789 792 797 800 798 792 789 791 792 793 794 792 791 792 793 793 794 794 793 794 794 793 792 789 788 788 788 787 786 787 789 790 794 798 798 799 803 806 806 806 807 809 812 814 816 819 820 817 815 815 814 815 816 817 819 820 821 822 822 824 825 826 828 828 829 829 830 831 831 832 833 834 835 836 836 837 838
772 762 761 764 763 764 762 763 767 762 767 774 762 761 781 789 785 774 771 786 797 799 802 807 806 798 793 794 793 795 796 793 792 793 794 795 795 796 796 796 796 794 794 791 789 790 790 788 787 787 789 793 795 798 800 801 803 804 804 805 806 808 811 813 814 815 817 815 813 814 814 815 815 816 817 818 819 820 821 822 823 824 826 827 827 828 828 829 830 831 831 832 833 833 833 834 834
763 760 763 763 762 763 761 764 766 763 774 783 769 764 780 790 788 785 786 792 797 801 804 804 802 798 797 797 795 796 797 795 794 794 796 797 797 797 797 797 797 796 795 793 791 792 791 789 788 786 789 795 796 797 799 801 802 802 802 803 805 807 810 812 812 813 813 812 811 812 812 813 814 814 815 816 817 818 819 820 822 823 824 825 825 826 827 828 829 829 829 830 830 831 831 831 831
760 763 766 766 764 762 763 764 765 776 787 781 768 766 781 799 797 788 790 793 792 797 801 799 797 797 798 798 797 797 798 797 796 796 797 798 799 799 799 799 798 798 797 795 793 793 791 790 789 787 788 794 796 796 798 800 801 801 800 802 804 806 807 808 809 810 810 809 809 810 811 812 813 813 814 815 816 817 818 819 820 821 823 824 824 824 825 826 827 828 828 828 829 829 829 829 829
764 767 770 775 773 768 772 771 771 792 797 778 766 766 779 801 804 793 793 792 789 794 798 797 797 798 799 799 798 798 799 799 798 798 799 800 801 801 801 801 800 799 799 797 796 795 793 792 792 790 789 792 795 797 798 799 801 802 801 803 805 806 806 806 807 808 808 808 808 809 811 812 813 814 815 815 815 816 816 817 818 818 820 821 822 823 823 824 824 826 826 826 827 827 826 827 827
767 770 775 785 788 789 793 790 788 800 796 776 770 773 783 799 801 794 794 792 791 794 796 796 798 799 800 800 799 799 800 801 800 800 801 802 803 803 803 803 802 800 800 799 798 797 796 795 795 793 792 792 794 797 798 798 800 802 804 806 806 806 806 806 806 806 806 806 807 809 811 812 813 813 815 815 816 817 817 818 818 818 818 819 820 822 822 823 823 823 824 825 825 825 825 825 824
771 776 783 794 803 810 809 803 804 806 795 778 772 779 796 808 803 794 792 792 792 793 795 797 797 799 801 800 799 800 800 802 803 802 802 803 805 805 805 805 803 801 801 800 800 799 798 797 797 797 796 795 796 797 798 798 800 803 805 806 805 804 805 806 806 805 805 805 806 808 810 811 812 813 814 815 817 818 818 818 819 820 820 821 821 822 823 823 823 822 822 823 823 823 823 823 823
772 773 783 796 808 817 816 814 817 811 799 788 782 789 803 809 803 792 791 792 792 794 796 797 798 800 801 800 800 801 802 804 804 804 804 805 806 807 806 806 805 803 802 801 801 800 799 798 798 798 798 797 797 798 798 799 800 802 804 805 805 804 806 807 806 804 804 805 805 807 809 810 812 813 815 816 817 818 818 818 819 819 819 821 821 823 823 823 823 822 822 821 821 821 821 821 821
774 772 784 792 795 804 809 810 806 801 805 802 793 798 805 803 799 792 793 796 795 797 799 799 801 802 802 803 802 803 805 805 806 806 806 806 807 808 807 807 806 804 803 802 802 802 801 800 799 799 798 798 798 798 799 800 801 802 802 803 804 804 805 806 804 803 803 804 806 807 808 810 811 813 814 816 816 817 818 818 818 818 818 819 819 821 823 823 823 822 821 820 820 820 819 819 819
779 781 793 787 777 789 803 806 799 798 810 802 789 800 806 803 803 799 797 800 800 801 802 802 803 803 804 806 805 805 806 807 807 807 808 808 808 808 808 807 806 805 804 803 803 803 802 801 800 799 799 799 798 798 799 800 800 801 802 803 803 802 802 802 802 802 803 804 805 807 808 809 810 811 812 813 813 814 815 816 817 817 817 817 816 817 819 821 822 821 819 819 818 818 819 819 819
782 789 792 780 776 783 793 806 811 809 810 798 791 805 809 807 812 809 804 804 804 805 805 805 806 805 806 807 806 806 807 808 808 808 809 809 808 808 808 807 807 806 805 804 804 803 803 802 801 800 800 799 799 799 800 800 800 801 802 802 802 802 801 801 801 801 802 803 805 806 807 808 809 810 810 811 810 810 812 815 816 816 816 816 816 816 816 817 819 819 818 817 816 817 819 819 819
777 785 783 785 801 804 795 803 812 809 806 801 798 804 804 805 811 813 811 807 805 806 805 806 808 807 808 809 808 808 808 809 809 809 810 809 808 808 807 807 807 806 805 805 804 804 804 803 802 801 801 800 800 800 800 800 800 801 802 802 803 802 802 802 801 801 801 803 803 804 805 806 807 808 809 810 808 807 809 812 815 815 815 814 814 815 815 816 816 816 816 815 815 816 818 819 819
777 783 782 786 803 806 798 801 805 803 807 807 801 799 801 802 802 805 808 806 805 806 806 807 808 808 809 810 810 810 810 810 810 810 810 809 808 807 806 807 807 806 806 805 805 804 804 804 803 802 802 801 801 801 801 801 801 801 802 802 803 803 803 803 802 801 800 800 802 803 804 805 806 807 808 808 807 806 807 810 813 813 813 812 812 813 814 814 815 814 814 814 813 814 817 818 818
787 793 795 792 790 790 794 799 797 798 810 814 803 799 801 799 797 801 806 807 805 803 804 807 808 809 810 810 811 812 811 811 810 810 809 809 808 807 806 807 807 806 806 805 805 805 804 804 803 803 803 802 802 801 801 801 801 802 803 803 803 803 803 803 803 803 802 801 801 801 803 804 806 808 808 807 806 806 807 809 809 810 810 810 810 811 812 813 813 813 813 813 812 813 814 815 815
785 793 804 806 800 798 804 805 795 793 804 806 801 803 803 797 796 800 804 804 801 799 802 807 808 810 812 812 812 813 812 811 810 810 810 809 808 807 806 807 807 807 806 805 806 805 805 804 803 803 803 803 803 802 802 803 803 804 804 804 804 803 804 804 804 804 804 804 804 803 803 803 804 806 807 807 806 806 807 808 808 808 807 808 809 809 810 811 812 812 813 813 813 812 813 813 813